Flag for U.S.A. Weather past 2 weeks in Woodstock, New York, U.S.A.

Now
33 °F

Overcast.


Feels Like: 30 °F
Forecast: 27 / 37 °F
Wind: 3 mph from North

Location: Dutchess County Airport

Current Time: Dec 22, 2014 at 5:13:11 AM

Latest Report: Dec 22, 2014 at 3:53 AM


Visibility: 10 mi

Pressure: 30.34 "Hg

Humidity: 78%

Dew point: 27 °F

Location of WoodstockLocation

Historic Weather in Woodstock — Graph

°F

Woodstock temperature yesterday

Maximum temperature yesterday: 34 °F (at 3:53 PM)
Minimum temperature yesterday: 29 °F (at 1:53 AM)
Average temperature yesterday: 31 °F

Past Weeks' High & Low Weather Summary

 TemperatureHumidityPressure
High51 °F (Dec 17, 12:53 PM)97% (Dec 17, 3:53 AM)30.74 "Hg (Dec 17, 3:53 AM)
Low17 °F (Dec 8, 5:53 AM)32% (Dec 7, 2:53 PM)29.55 "Hg (Dec 11, 12:53 AM)
Average34 °F71%30.03 "Hg
* Reported Dec 7 3:53 AM — Dec 22 3:53 AM, Woodstock, Weather by CustomWeather, © 2014

Note: Actual official high and low records may vary slightly from our data, if they occured in-between our weather recording intervals... More about our weather records

Advertising

Woodstock weather history for previous 24 hours

 ConditionsComfort  
Time TempWeatherWind HumidityBarometerVisibility
3:53 AM
Dec 22
33 °FOvercast.3 mph78%30.34 "Hg10 mi
3:04 AM33 °FOvercast.3 mph78%30.35 "Hg10 mi
2:53 AM33 °FOvercast.3 mph78%30.34 "Hg10 mi
1:53 AM33 °FOvercast.6 mph78%30.34 "Hg10 mi
12:53 AM32 °FOvercast.3 mph82%30.34 "Hg8 mi
11:53 PM
Dec 21
33 °FOvercast.No wind82%30.35 "Hg10 mi
10:53 PM32 °FLight snow. Overcast.5 mph82%30.34 "Hg5 mi
9:53 PM32 °FLight snow. Overcast.3 mph82%30.35 "Hg5 mi
8:53 PM33 °FMostly cloudy.3 mph75%30.35 "Hg10 mi
7:53 PM33 °FOvercast.3 mph75%30.35 "Hg10 mi
6:53 PM33 °FOvercast.5 mph75%30.34 "Hg10 mi
5:53 PM33 °FMostly cloudy.5 mph75%30.32 "Hg10 mi
4:53 PM33 °FOvercast.6 mph75%30.31 "Hg10 mi
3:53 PM34 °FMore clouds than sun.7 mph73%30.30 "Hg10 mi
2:53 PM33 °FMostly cloudy.5 mph78%30.29 "Hg10 mi
1:53 PM33 °FOvercast.6 mph78%30.29 "Hg10 mi
12:53 PM32 °FOvercast.5 mph82%30.30 "Hg9 mi
11:59 AM32 °FLight snow. Mostly cloudy.6 mph82%30.31 "Hg2 mi
10:53 AM31 °FLight snow. More clouds than sun.7 mph82%30.33 "Hg1 mi
9:53 AM31 °FOvercast.6 mph79%30.33 "Hg10 mi
8:53 AM30 °FOvercast.No wind82%30.31 "Hg10 mi
7:53 AM30 °FOvercast.5 mph79%30.31 "Hg10 mi
6:53 AM29 °FOvercast.5 mph82%30.31 "Hg10 mi
5:53 AM29 °FOvercast.3 mph82%30.29 "Hg10 mi
Weather by CustomWeather, © 2014

See weather overviewHow to use our weather pages